When you browse on this site, cookies collect data to enhance your experience and personalize the content and advertising you see.
Visit our Privacy Policy to learn more. By continuing to use the site, you agree to this use of cookies and data.
  • In Deutschland
  • Länderverzeichnis
  • Für 7 Tage
  • Wassertemperatur
  • Satellitenkarten
  • Wetterkarte
  • Widgets
  • user-avatar
    Anmelden

    Stündliche Wetter Majdan

    Heute, 20 Mai, Montag

    Zeit Temperatur Niederschläge Wind Luftdruck Luftfeuchtigkeit
    00:00 +17°C° 0 mm 3 m/S 747 mmHg 94%
    01:00 +17°C° 0 mm 3 m/S 747 mmHg 95%
    02:00 +16°C° 0 mm 3 m/S 746 mmHg 95%
    03:00 +16°C° 0 mm 3 m/S 746 mmHg 96%
    04:00 +15°C° 0 mm 4 m/S 746 mmHg 96%
    05:00 +17°C° 0 mm 4 m/S 746 mmHg 93%
    06:00 +17°C° 0 mm 5 m/S 746 mmHg 91%
    07:00 +19°C° 0 mm 5 m/S 746 mmHg 88%
    08:00 +20°C° 0 mm 5 m/S 746 mmHg 85%
    09:00 +21°C° 0 mm 6 m/S 746 mmHg 82%
    10:00 +22°C° 0 mm 6 m/S 746 mmHg 79%
    11:00 +23°C° 0 mm 6 m/S 745 mmHg 75%
    12:00 +24°C° 0 mm 6 m/S 745 mmHg 70%
    13:00 +27°C° 0 mm 6 m/S 745 mmHg 66%
    14:00 +26°C° 0.7 mm 6 m/S 745 mmHg 68%
    15:00 +26°C° 0.7 mm 5 m/S 745 mmHg 69%
    16:00 +25°C° 0.7 mm 5 m/S 744 mmHg 71%
    17:00 +23°C° 1 mm 5 m/S 744 mmHg 74%
    18:00 +22°C° 1 mm 4 m/S 744 mmHg 77%
    19:00 +21°C° 1 mm 3 m/S 744 mmHg 80%
    20:00 +20°C° 0.6 mm 3 m/S 744 mmHg 82%
    21:00 +19°C° 0.6 mm 3 m/S 744 mmHg 85%
    22:00 +18°C° 0.6 mm 3 m/S 745 mmHg 88%
    23:00 +18°C° 0.1 mm 3 m/S 744 mmHg 90%

    Morgen, 21 Mai, Dienstag

    Zeit Temperatur Niederschläge Wind Luftdruck Luftfeuchtigkeit
    00:00 +17°C° 0.1 mm 3 m/S 744 mmHg 92%
    01:00 +17°C° 0.1 mm 3 m/S 744 mmHg 94%
    02:00 +17°C° 0 mm 3 m/S 744 mmHg 94%
    03:00 +17°C° 0 mm 3 m/S 744 mmHg 94%
    04:00 +16°C° 0 mm 3 m/S 744 mmHg 94%
    05:00 +17°C° 0.2 mm 3 m/S 744 mmHg 92%
    06:00 +18°C° 0.2 mm 3 m/S 744 mmHg 89%
    07:00 +19°C° 0.2 mm 4 m/S 744 mmHg 86%
    08:00 +19°C° 0.1 mm 4 m/S 744 mmHg 86%
    09:00 +19°C° 0.1 mm 4 m/S 744 mmHg 86%
    10:00 +19°C° 0.1 mm 5 m/S 744 mmHg 86%
    11:00 +20°C° 0.1 mm 5 m/S 744 mmHg 81%
    12:00 +21°C° 0.1 mm 6 m/S 743 mmHg 75%
    13:00 +22°C° 0.1 mm 6 m/S 743 mmHg 70%
    14:00 +22°C° 0.6 mm 6 m/S 743 mmHg 71%
    15:00 +21°C° 0.6 mm 6 m/S 742 mmHg 71%
    16:00 +21°C° 0.6 mm 7 m/S 742 mmHg 72%
    17:00 +20°C° 0.1 mm 6 m/S 742 mmHg 76%
    18:00 +17°C° 0.1 mm 5 m/S 742 mmHg 79%
    19:00 +17°C° 0.1 mm 4 m/S 742 mmHg 82%
    20:00 +15°C° 0 mm 5 m/S 742 mmHg 85%
    21:00 +15°C° 0 mm 5 m/S 743 mmHg 88%
    22:00 +15°C° 0 mm 5 m/S 743 mmHg 91%
    23:00 +15°C° 0 mm 5 m/S 743 mmHg 90%

    übermorgen, 22 Mai, Mittwoch

    Zeit Temperatur Niederschläge Wind Luftdruck Luftfeuchtigkeit
    00:00 +15°C° 0 mm 5 m/S 743 mmHg 89%
    01:00 +15°C° 0 mm 6 m/S 743 mmHg 88%
    02:00 +14°C° 0.1 mm 5 m/S 743 mmHg 88%
    03:00 +14°C° 0.1 mm 5 m/S 743 mmHg 88%
    04:00 +14°C° 0.1 mm 5 m/S 743 mmHg 87%
    05:00 +14°C° 0 mm 5 m/S 744 mmHg 87%
    06:00 +15°C° 0 mm 5 m/S 744 mmHg 87%
    07:00 +15°C° 0 mm 5 m/S 744 mmHg 87%
    08:00 +16°C° 0 mm 5 m/S 744 mmHg 83%
    09:00 +17°C° 0 mm 5 m/S 744 mmHg 78%
    10:00 +19°C° 0 mm 5 m/S 745 mmHg 74%
    11:00 +20°C° 0.5 mm 5 m/S 744 mmHg 73%
    12:00 +20°C° 0.5 mm 5 m/S 744 mmHg 72%
    13:00 +20°C° 0.5 mm 5 m/S 744 mmHg 71%
    14:00 +20°C° 0.6 mm 5 m/S 744 mmHg 72%
    15:00 +20°C° 0.6 mm 5 m/S 744 mmHg 72%
    16:00 +20°C° 0.6 mm 5 m/S 744 mmHg 73%
    17:00 +19°C° 0.1 mm 4 m/S 744 mmHg 77%
    18:00 +18°C° 0.1 mm 3 m/S 744 mmHg 81%
    19:00 +17°C° 0.1 mm 3 m/S 744 mmHg 86%
    20:00 +17°C° 0.1 mm 3 m/S 744 mmHg 89%
    21:00 +16°C° 0.1 mm 3 m/S 745 mmHg 91%
    22:00 +15°C° 0.1 mm 2 m/S 745 mmHg 94%
    23:00 +15°C° 0.5 mm 2 m/S 745 mmHg 95%

    23 Mai, Donnerstag

    Zeit Temperatur Niederschläge Wind Luftdruck Luftfeuchtigkeit
    00:00 +14°C° 0.5 mm 3 m/S 745 mmHg 95%
    01:00 +13°C° 0.5 mm 3 m/S 745 mmHg 95%
    02:00 +14°C° 0.1 mm 2 m/S 745 mmHg 95%
    03:00 +14°C° 0.1 mm 2 m/S 745 mmHg 95%
    04:00 +13°C° 0.1 mm 2 m/S 745 mmHg 95%
    05:00 +14°C° 0 mm 2 m/S 745 mmHg 93%
    06:00 +15°C° 0 mm 1 m/S 746 mmHg 90%
    07:00 +16°C° 0 mm 1 m/S 746 mmHg 88%
    08:00 +16°C° 0.1 mm 1 m/S 746 mmHg 86%
    09:00 +18°C° 0.1 mm 1 m/S 747 mmHg 84%
    10:00 +19°C° 0.1 mm 1 m/S 747 mmHg 83%
    11:00 +18°C° 0.8 mm 2 m/S 747 mmHg 82%
    12:00 +19°C° 0.8 mm 3 m/S 748 mmHg 81%
    13:00 +19°C° 0.8 mm 5 m/S 748 mmHg 80%
    14:00 +19°C° 0.6 mm 5 m/S 748 mmHg 81%
    15:00 +17°C° 0.6 mm 6 m/S 748 mmHg 83%
    16:00 +16°C° 0.6 mm 6 m/S 749 mmHg 84%
    17:00 +15°C° 0.1 mm 6 m/S 749 mmHg 84%
    18:00 +14°C° 0.1 mm 6 m/S 749 mmHg 85%
    19:00 +13°C° 0.1 mm 6 m/S 749 mmHg 85%
    20:00 +12°C° 0 mm 5 m/S 750 mmHg 83%
    21:00 +10°C° 0 mm 5 m/S 750 mmHg 81%
    22:00 +10°C° 0 mm 5 m/S 750 mmHg 79%
    23:00 +10°C° 0 mm 5 m/S 750 mmHg 79%

    24 Mai, Freitag

    Zeit Temperatur Niederschläge Wind Luftdruck Luftfeuchtigkeit
    00:00 +11°C° 0 mm 4 m/S 751 mmHg 78%
    01:00 +11°C° 0 mm 4 m/S 751 mmHg 78%
    02:00 +10°C° 0 mm 4 m/S 751 mmHg 79%
    03:00 +10°C° 0 mm 4 m/S 751 mmHg 81%
    04:00 +10°C° 0 mm 4 m/S 751 mmHg 82%
    05:00 +10°C° 0 mm 4 m/S 751 mmHg 80%
    06:00 +11°C° 0 mm 4 m/S 751 mmHg 79%
    07:00 +12°C° 0 mm 4 m/S 750 mmHg 77%
    08:00 +14°C° 0 mm 4 m/S 750 mmHg 71%
    09:00 +15°C° 0 mm 4 m/S 750 mmHg 65%
    10:00 +18°C° 0 mm 4 m/S 750 mmHg 59%
    11:00 +19°C° 0 mm 4 m/S 750 mmHg 57%
    12:00 +19°C° 0 mm 4 m/S 749 mmHg 54%
    13:00 +20°C° 0 mm 3 m/S 749 mmHg 51%
    14:00 +20°C° 0 mm 3 m/S 749 mmHg 52%
    15:00 +20°C° 0 mm 3 m/S 749 mmHg 54%
    16:00 +19°C° 0 mm 3 m/S 748 mmHg 55%
    17:00 +18°C° 0 mm 2 m/S 748 mmHg 59%
    18:00 +17°C° 0 mm 2 m/S 748 mmHg 63%
    19:00 +16°C° 0 mm 2 m/S 748 mmHg 67%
    20:00 +15°C° 0 mm 1 m/S 748 mmHg 72%
    21:00 +14°C° 0 mm 1 m/S 748 mmHg 76%
    22:00 +13°C° 0 mm 1 m/S 748 mmHg 80%
    23:00 +12°C° 0 mm 1 m/S 748 mmHg 83%

    25 Mai, Samstag

    Zeit Temperatur Niederschläge Wind Luftdruck Luftfeuchtigkeit
    00:00 +12°C° 0 mm 2 m/S 748 mmHg 86%
    01:00 +10°C° 0 mm 2 m/S 748 mmHg 88%
    02:00 +10°C° 0 mm 2 m/S 748 mmHg 88%
    03:00 +10°C° 0 mm 1 m/S 748 mmHg 88%
    04:00 +10°C° 0 mm 1 m/S 748 mmHg 88%
    05:00 +12°C° 0 mm 1 m/S 748 mmHg 81%
    06:00 +14°C° 0 mm 1 m/S 748 mmHg 75%
    07:00 +15°C° 0 mm 1 m/S 748 mmHg 68%
    08:00 +18°C° 0 mm 1 m/S 748 mmHg 63%
    09:00 +19°C° 0 mm 1 m/S 748 mmHg 58%
    10:00 +21°C° 0 mm 1 m/S 748 mmHg 53%
    11:00 +21°C° 0 mm 1 m/S 748 mmHg 50%
    12:00 +21°C° 0 mm 2 m/S 748 mmHg 48%
    13:00 +21°C° 0 mm 2 m/S 748 mmHg 45%
    14:00 +21°C° 0 mm 2 m/S 748 mmHg 46%
    15:00 +21°C° 0 mm 2 m/S 748 mmHg 46%
    16:00 +21°C° 0 mm 2 m/S 748 mmHg 47%
    17:00 +20°C° 0 mm 2 m/S 748 mmHg 52%
    18:00 +19°C° 0 mm 2 m/S 748 mmHg 57%
    19:00 +19°C° 0 mm 1 m/S 748 mmHg 62%
    20:00 +18°C° 0 mm 1 m/S 748 mmHg 65%
    21:00 +15°C° 0 mm 1 m/S 748 mmHg 68%
    22:00 +13°C° 0 mm 0 m/S 749 mmHg 71%
    23:00 +13°C° 0 mm 0 m/S 749 mmHg 73%
    Mehr zeigen